Flag for China Weather past 2 weeks in Zhengzhou, Henan, China

Now
32 °F

Overcast.


Feels Like: 24 °F
Forecast: 26 / 33 °F
Wind: 10 mph from Northeast

Location: Zhengzhou Airport

Current Time: Jan 27, 2015 at 12:21:02 PM

Latest Report: Jan 27, 2015 at 11:00 AM


Visibility: 2 mi

Pressure: 30.60 "Hg

Humidity: 64%

Dew point: 21 °F

Location of ZhengzhouLocation

Historic Weather in Zhengzhou — Graph

°F

Zhengzhou temperature yesterday

Maximum temperature yesterday: 41 °F (at 2:00 PM)
Minimum temperature yesterday: 32 °F (at 12:00 AM)
Average temperature yesterday: 36 °F

Past Weeks' High & Low Weather Summary

 TemperatureHumidityPressure
High57 °F (Jan 20, 2:00 PM)100% (Jan 16, 1:00 AM)30.63 "Hg (Jan 16, 1:00 AM)
Low23 °F (Jan 22, 6:00 AM)13% (Jan 18, 5:00 PM)29.98 "Hg (Jan 23, 3:00 PM)
Average38 °F59%30.31 "Hg
* Reported Jan 12 10:00 AM — Jan 27 10:00 AM, Zhengzhou, Weather by CustomWeather, © 2014

Note: Actual official high and low records may vary slightly from our data, if they occured in-between our weather recording intervals... More about our weather records

Advertising

Zhengzhou weather history for previous 24 hours

 ConditionsComfort  
Time TempWeatherWind HumidityBarometerVisibility
10:00 AM
Jan 27
32 °FOvercast.15 mph64%30.57 "Hg2 mi
9:00 AM30 °FOvercast.13 mph75%30.57 "Hg1 mi
8:00 AM30 °FOvercast.13 mph75%30.57 "Hg1 mi
7:00 AM30 °FOvercast.13 mph75%30.54 "Hg2 mi
6:00 AM32 °FOvercast.10 mph75%30.51 "Hg2 mi
5:00 AM32 °FOvercast.13 mph75%30.51 "Hg2 mi
4:00 AM32 °FOvercast.13 mph69%30.51 "Hg2 mi
3:00 AM32 °FOvercast.10 mph69%30.51 "Hg2 mi
2:00 AM34 °FOvercast.10 mph65%30.51 "Hg2 mi
1:00 AM34 °FOvercast.13 mph70%30.48 "Hg2 mi
12:00 AM34 °FFog.13 mph75%30.48 "Hg1 mi
11:00 PM
Jan 26
34 °FFog.13 mph81%30.48 "Hg1 mi
10:00 PM36 °FFog.10 mph75%30.45 "Hg1 mi
9:00 PM34 °FFog.15 mph87%30.42 "Hg1 mi
8:00 PM36 °FFog.13 mph87%30.39 "Hg1 mi
7:00 PM37 °FFog.15 mph87%30.36 "Hg1 mi
6:00 PM37 °FFog.10 mph87%30.30 "Hg1 mi
5:00 PM39 °FFog.10 mph87%30.24 "Hg1 mi
4:00 PM41 °FFog.6 mph81%30.21 "Hg1 mi
3:00 PM41 °FFog.3 mph81%30.18 "Hg1 mi
2:00 PM41 °FFog.3 mph81%30.18 "Hg1 mi
1:00 PM39 °FFog.3 mph87%30.21 "Hg1 mi
12:00 PM37 °FFog.3 mph87%30.27 "Hg1 mi
Weather by CustomWeather, © 2014

See weather overviewHow to use our weather pages